Simultaneous Nadir Overpasses (SNOs) Predictions

Prediction of SNOs between AQUA and METOP-A Satellite Orbit:

Table of predicted SNOs for the next 14.0 days since TLE Epoch: 6/18/2016
Index Date (AQUA) Time (AQUA) Lat,Lon (AQUA) SZA (AQUA ) Date (METOP-A) Time (METOP-A) Lat,Lon (METOP-A) SZA (METOP-A ) Distance(km) Time Diff (sec)
1 06/19/2016 17:34:25 73.86, -89.42 50.45 06/19/2016 17:33:37 73.88, -89.36 50.47 2.98 48
2 06/19/2016 18:23:51 -73.90, 78.13 129.51 06/19/2016 18:24:18 -73.91, 78.04 129.50 3.18 27
3 06/22/2016 13:08:37 73.85, -22.96 50.45 06/22/2016 13:07:58 73.87, -22.96 50.48 2.49 39
4 06/22/2016 13:58:04 -73.94, 144.48 129.46 06/22/2016 13:58:38 -73.96, 144.57 129.45 3.25 34
5 06/25/2016 08:42:50 73.85, 43.47 50.52 06/25/2016 08:42:20 73.86, 43.42 50.54 1.76 30
6 06/25/2016 09:32:17 -73.94,-149.07 129.39 06/25/2016 09:33:00 -73.95,-149.03 129.38 2.25 43
7 06/28/2016 03:27:22 -73.17, -56.27 130.10 06/28/2016 03:26:17 -73.12, -59.19 130.01 94.22 65
8 06/28/2016 04:17:03 73.87, 109.88 50.66 06/28/2016 04:16:42 73.85, 109.81 50.65 2.96 21
9 06/28/2016 05:06:30 -73.95, -82.65 129.26 06/28/2016 05:07:22 -73.95, -82.63 129.27 0.55 52
10 06/30/2016 23:01:41 -73.56, 9.37 129.52 06/30/2016 23:00:30 -73.52, 8.09 129.49 40.52 71
11 06/30/2016 23:51:15 73.90, 176.27 50.86 06/30/2016 23:51:02 73.89, 176.30 50.85 1.45 13
12 07/01/2016 00:40:42 -73.97, -16.25 129.07 07/01/2016 00:41:43 -73.94, -16.25 129.10 3.20 61




NCC Satellite Simultaneous Nadir Overpasses (SNOs) Prediction Service
